| time (UTC) | temp F | wind direction | speed MPH | gust MPH | rain 1hr in | rain 24hr in | rain mn in | humidity % | barometer mb |
| 20260903215056 | 74 | 0.0 | 0.0 | 0.00 | 0.00 | 0.00 | 74 | 1019.3 | |
| 20260903214016 | 74 | 0.0 | 0.0 | 0.00 | 0.00 | 0.00 | 73 | 1019.4 | |
| 20260903213016 | 75 | 0.0 | 0.0 | 0.00 | 0.00 | 0.00 | 73 | 1019.4 | |
| 20260903212016 | 75 | 0.0 | 0.0 | 0.00 | 0.00 | 0.00 | 72 | 1019.5 | |
| 20260903211016 | 75 | 0.0 | 0.0 | 0.00 | 0.00 | 0.00 | 71 | 1019.5 | |
| 20260903210016 | 75 | 0.0 | 0.0 | 0.00 | 0.00 | 0.00 | 71 | 1019.5 | |
| 20260903205016 | 75 | 0.0 | 0.0 | 0.00 | 0.00 | 0.00 | 72 | 1019.5 | |
| 20260903204016 | 75 | 0.0 | 0.0 | 0.00 | 0.00 | 0.00 | 72 | 1019.5 | |
| 20260903203036 | 76 | 0.0 | 0.0 | 0.00 | 0.00 | 0.00 | 72 | 1019.4 | |
| 20260903202016 | 76 | 0.0 | 0.0 | 0.00 | 0.00 | 0.00 | 71 | 1019.4 | |
| 20260903201016 | 76 | 0.0 | 0.0 | 0.00 | 0.00 | 0.00 | 71 | 1019.5 | |
| 20260903200016 | 76 | 0.0 | 0.0 | 0.00 | 0.00 | 0.00 | 71 | 1019.4 | |
| 20260903195016 | 76 | 0.0 | 0.0 | 0.00 | 0.00 | 0.00 | 70 | 1019.5 | |
| 20260903194016 | 77 | 0.0 | 1.0 | 0.00 | 0.00 | 0.00 | 69 | 1019.3 | |
| 20260903193016 | 77 | 0.0 | 1.0 | 0.00 | 0.00 | 0.00 | 69 | 1019.1 | |
| 20260903192016 | 77 | 0.0 | 1.0 | 0.00 | 0.00 | 0.00 | 68 | 1019.0 | |
| 20260903191036 | 77 | 0.0 | 0.0 | 0.00 | 0.00 | 0.00 | 67 | 1018.9 | |
| 20260903190015 | 78 | 0.0 | 0.0 | 0.00 | 0.00 | 0.00 | 66 | 1018.7 | |
| 20260903185037 | 78 | 0.0 | 0.0 | 0.00 | 0.00 | 0.00 | 65 | 1018.7 | |
| 20260903184037 | 78 | 0.0 | 0.0 | 0.00 | 0.00 | 0.00 | 64 | 1018.6 | |
| 20260903183016 | 79 | 0.0 | 0.0 | 0.00 | 0.00 | 0.00 | 64 | 1018.5 | |
| 20260903182036 | 79 | 0.0 | 1.0 | 0.00 | 0.00 | 0.00 | 63 | 1018.5 | |
| 20260903181016 | 80 | 0.0 | 1.0 | 0.00 | 0.00 | 0.00 | 62 | 1018.5 | |
| 20260903180016 | 81 | 0.0 | 0.0 | 0.00 | 0.00 | 0.00 | 60 | 1018.5 | |
| 20260903175015 | 82 | 0.0 | 0.0 | 0.00 | 0.00 | 0.00 | 59 | 1018.4 | |
| 20260903174017 | 83 | 0.0 | 0.0 | 0.00 | 0.00 | 0.00 | 58 | 1018.4 | |
| 20260903173015 | 83 | 0.0 | 0.0 | 0.00 | 0.00 | 0.00 | 57 | 1018.5 | |
| 20260903172035 | 84 | 0.0 | 0.0 | 0.00 | 0.00 | 0.00 | 56 | 1018.4 | |
| 20260903171017 | 85 | 0.0 | 0.0 | 0.00 | 0.00 | 0.00 | 55 | 1018.4 | |
| 20260903170017 | 86 | 0.0 | 0.0 | 0.00 | 0.00 | 0.00 | 53 | 1018.4 | |
| 20260903165017 | 87 | 0.0 | 0.0 | 0.00 | 0.00 | 0.00 | 51 | 1018.4 | |
| 20260903164018 | 88 | 0.0 | 2.0 | 0.00 | 0.00 | 0.00 | 49 | 1018.5 | |
| 20260903163017 | 89 | 248 | 1.0 | 2.0 | 0.00 | 0.00 | 0.00 | 50 | 1018.6 |
| 20260903162017 | 89 | 248 | 1.0 | 3.0 | 0.00 | 0.00 | 0.00 | 50 | 1018.6 |
| 20260903161017 | 89 | 0.0 | 3.0 | 0.00 | 0.00 | 0.00 | 49 | 1018.7 | |
| 20260903160017 | 89 | 248 | 1.0 | 3.0 | 0.00 | 0.00 | 0.00 | 49 | 1018.7 |
| 20260903155037 | 89 | 158 | 2.0 | 5.0 | 0.00 | 0.00 | 0.00 | 48 | 1018.7 |
| 20260903154017 | 90 | 135 | 2.0 | 5.0 | 0.00 | 0.00 | 0.00 | 47 | 1018.6 |
| 20260903153059 | 90 | 158 | 2.0 | 5.0 | 0.00 | 0.00 | 0.00 | 48 | 1018.6 |
| 20260903152017 | 90 | 158 | 2.0 | 5.0 | 0.00 | 0.00 | 0.00 | 47 | 1018.6 |
| 20260903151037 | 90 | 180 | 2.0 | 5.0 | 0.00 | 0.00 | 0.00 | 47 | 1018.7 |
| 20260903150017 | 90 | 135 | 2.0 | 4.0 | 0.00 | 0.00 | 0.00 | 48 | 1018.6 |
| 20260903145018 | 91 | 135 | 2.0 | 6.0 | 0.00 | 0.00 | 0.00 | 48 | 1018.6 |
| 20260903144017 | 90 | 135 | 2.0 | 4.0 | 0.00 | 0.00 | 0.00 | 49 | 1018.6 |
| 20260903143018 | 90 | 158 | 2.0 | 4.0 | 0.00 | 0.00 | 0.00 | 46 | 1018.6 |
| 20260903142017 | 90 | 135 | 2.0 | 7.0 | 0.00 | 0.00 | 0.00 | 47 | 1018.6 |
| 20260903141017 | 90 | 135 | 2.0 | 5.0 | 0.00 | 0.00 | 0.00 | 49 | 1018.7 |
| 20260903140017 | 90 | 158 | 2.0 | 6.0 | 0.00 | 0.00 | 0.00 | 50 | 1018.8 |
| 20260903135017 | 90 | 135 | 3.0 | 8.0 | 0.00 | 0.00 | 0.00 | 49 | 1018.9 |
| 20260903134017 | 91 | 135 | 2.0 | 5.0 | 0.00 | 0.00 | 0.00 | 50 | 1018.9 |
| 20260903133017 | 90 | 135 | 2.0 | 5.0 | 0.00 | 0.00 | 0.00 | 50 | 1019.0 |
| 20260903132017 | 90 | 135 | 2.0 | 7.0 | 0.00 | 0.00 | 0.00 | 51 | 1018.9 |
| 20260903131017 | 90 | 158 | 2.0 | 5.0 | 0.00 | 0.00 | 0.00 | 52 | 1018.9 |
| 20260903130017 | 90 | 135 | 3.0 | 6.0 | 0.00 | 0.00 | 0.00 | 53 | 1019.0 |
| 20260903125016 | 90 | 135 | 2.0 | 5.0 | 0.00 | 0.00 | 0.00 | 51 | 1018.9 |
| 20260903124017 | 90 | 135 | 3.0 | 7.0 | 0.00 | 0.00 | 0.00 | 51 | 1018.9 |
| 20260903123017 | 90 | 113 | 1.0 | 4.0 | 0.00 | 0.00 | 0.00 | 51 | 1019.0 |
| 20260903122016 | 91 | 158 | 2.0 | 8.0 | 0.00 | 0.00 | 0.00 | 51 | 1019.0 |
| 20260903121017 | 90 | 135 | 2.0 | 8.0 | 0.00 | 0.00 | 0.00 | 48 | 1019.0 |
| 20260903120017 | 90 | 113 | 2.0 | 4.0 | 0.00 | 0.00 | 0.00 | 48 | 1019.0 |
| 20260903115016 | 90 | 158 | 2.0 | 6.0 | 0.00 | 0.00 | 0.00 | 49 | 1019.2 |
| 20260903114017 | 91 | 135 | 1.0 | 3.0 | 0.00 | 0.00 | 0.00 | 48 | 1019.1 |
| 20260903113016 | 91 | 158 | 2.0 | 5.0 | 0.00 | 0.00 | 0.00 | 47 | 1019.1 |
| 20260903112016 | 91 | 158 | 2.0 | 5.0 | 0.00 | 0.00 | 0.00 | 43 | 1019.2 |
| 20260903110017 | 90 | 135 | 2.0 | 6.0 | 0.00 | 0.00 | 0.00 | 44 | 1019.2 |
| 20260903105016 | 90 | 135 | 1.0 | 5.0 | 0.00 | 0.00 | 0.00 | 46 | 1019.4 |
| 20260903104016 | 89 | 225 | 2.0 | 4.0 | 0.00 | 0.00 | 0.00 | 48 | 1019.3 |
| 20260903103036 | 89 | 225 | 1.0 | 3.0 | 0.00 | 0.00 | 0.00 | 47 | 1019.3 |
| 20260903102016 | 88 | 158 | 1.0 | 3.0 | 0.00 | 0.00 | 0.00 | 50 | 1019.3 |
| 20260903101016 | 87 | 270 | 1.0 | 4.0 | 0.00 | 0.00 | 0.00 | 51 | 1019.5 |
| 20260903100016 | 87 | 248 | 1.0 | 4.0 | 0.00 | 0.00 | 0.00 | 51 | 1019.6 |
| 20260903095036 | 86 | 248 | 2.0 | 5.0 | 0.00 | 0.00 | 0.00 | 52 | 1019.4 |
| 20260903094016 | 86 | 135 | 2.0 | 4.0 | 0.00 | 0.00 | 0.00 | 53 | 1019.6 |
| 20260903093016 | 86 | 248 | 1.0 | 3.0 | 0.00 | 0.00 | 0.00 | 52 | 1019.6 |
| 20260903092016 | 86 | 135 | 1.0 | 4.0 | 0.00 | 0.00 | 0.00 | 52 | 1019.6 |
| 20260903091016 | 85 | 158 | 1.0 | 3.0 | 0.00 | 0.00 | 0.00 | 53 | 1019.6 |
| 20260903090016 | 85 | 248 | 2.0 | 4.0 | 0.00 | 0.00 | 0.00 | 54 | 1019.6 |
| 20260903085016 | 85 | 135 | 2.0 | 4.0 | 0.00 | 0.00 | 0.00 | 54 | 1019.5 |
| 20260903084016 | 84 | 135 | 1.0 | 3.0 | 0.00 | 0.00 | 0.00 | 56 | 1019.6 |
| 20260903083016 | 83 | 158 | 1.0 | 3.0 | 0.00 | 0.00 | 0.00 | 56 | 1019.5 |
| 20260903082016 | 83 | 0.0 | 2.0 | 0.00 | 0.00 | 0.00 | 58 | 1019.4 | |
| 20260903081016 | 82 | 0.0 | 2.0 | 0.00 | 0.00 | 0.00 | 57 | 1019.4 | |
| 20260903080014 | 81 | 158 | 1.0 | 3.0 | 0.00 | 0.00 | 0.00 | 57 | 1019.3 |
| 20260903075016 | 80 | 0.0 | 1.0 | 0.00 | 0.00 | 0.00 | 56 | 1019.2 | |
| 20260903074036 | 79 | 0.0 | 2.0 | 0.00 | 0.00 | 0.00 | 57 | 1019.2 | |
| 20260903073016 | 78 | 0.0 | 0.0 | 0.00 | 0.00 | 0.00 | 55 | 1019.1 | |
| 20260903072016 | 77 | 0.0 | 0.0 | 0.00 | 0.00 | 0.00 | 56 | 1019.1 | |
| 20260903071036 | 76 | 158 | 1.0 | 3.0 | 0.00 | 0.00 | 0.00 | 61 | 1019.1 |
| 20260903070036 | 74 | 0.0 | 2.0 | 0.00 | 0.00 | 0.00 | 65 | 1019.0 | |
| 20260903065016 | 72 | 0.0 | 0.0 | 0.00 | 0.00 | 0.00 | 64 | 1019.0 | |
| 20260903064016 | 70 | 0.0 | 0.0 | 0.00 | 0.00 | 0.00 | 68 | 1019.0 | |
| 20260903063016 | 69 | 0.0 | 0.0 | 0.00 | 0.00 | 0.00 | 71 | 1018.9 | |
| 20260903062015 | 68 | 0.0 | 0.0 | 0.00 | 0.00 | 0.00 | 74 | 1018.7 | |
| 20260903061017 | 67 | 0.0 | 0.0 | 0.00 | 0.00 | 0.00 | 74 | 1018.7 | |
| 20260903060056 | 66 | 0.0 | 0.0 | 0.00 | 0.00 | 0.00 | 75 | 1018.7 | |
| 20260903055036 | 66 | 0.0 | 0.0 | 0.00 | 0.00 | 0.00 | 75 | 1018.5 | |
| 20260903054016 | 66 | 0.0 | 0.0 | 0.00 | 0.00 | 0.00 | 77 | 1018.4 | |
| 20260903053017 | 65 | 0.0 | 1.0 | 0.00 | 0.00 | 0.00 | 77 | 1018.4 | |
| 20260903052016 | 65 | 0.0 | 0.0 | 0.00 | 0.00 | 0.00 | 78 | 1018.3 | |
| 20260903051015 | 65 | 0.0 | 0.0 | 0.00 | 0.00 | 0.00 | 80 | 1018.3 | |
| 20260903050017 | 65 | 0.0 | 0.0 | 0.00 | 0.00 | 0.00 | 79 | 1018.2 | |
| 20260903045015 | 65 | 0.0 | 0.0 | 0.00 | 0.00 | 0.00 | 80 | 1018.1 | |
| 20260903044018 | 65 | 0.0 | 0.0 | 0.00 | 0.00 | 0.00 | 82 | 1018.0 | |
| 20260903043018 | 65 | 0.0 | 1.0 | 0.00 | 0.00 | 0.00 | 84 | 1017.9 | |
| 20260903042017 | 65 | 0.0 | 3.0 | 0.00 | 0.00 | 0.00 | 84 | 1018.0 | |
| 20260903041017 | 65 | 0.0 | 0.0 | 0.00 | 0.00 | 0.00 | 85 | 1018.1 | |
| 20260903040019 | 65 | 0.0 | 0.0 | 0.00 | 0.00 | 0.00 | 85 | 1018.1 | |
| 20260903035017 | 66 | 0.0 | 0.0 | 0.00 | 0.00 | 0.00 | 86 | 1018.1 | |
| 20260903034018 | 66 | 0.0 | 0.0 | 0.00 | 0.00 | 0.00 | 86 | 1018.3 | |
| 20260903033017 | 66 | 0.0 | 0.0 | 0.00 | 0.00 | 0.00 | 86 | 1018.4 | |
| 20260903032017 | 66 | 0.0 | 0.0 | 0.00 | 0.00 | 0.00 | 86 | 1018.4 | |
| 20260903031017 | 66 | 0.0 | 0.0 | 0.00 | 0.00 | 0.00 | 86 | 1018.5 | |
| 20260903030019 | 66 | 0.0 | 0.0 | 0.00 | 0.00 | 0.00 | 87 | 1018.5 | |
| 20260903025017 | 66 | 0.0 | 0.0 | 0.00 | 0.00 | 0.00 | 87 | 1018.4 | |
| 20260903024017 | 67 | 0.0 | 0.0 | 0.00 | 0.00 | 0.00 | 87 | 1018.6 | |
| 20260903023017 | 67 | 0.0 | 0.0 | 0.00 | 0.00 | 0.00 | 87 | 1018.5 | |
| 20260903022017 | 67 | 0.0 | 0.0 | 0.00 | 0.00 | 0.00 | 87 | 1018.6 | |
| 20260903021037 | 67 | 0.0 | 0.0 | 0.00 | 0.00 | 0.00 | 87 | 1018.6 | |
| 20260903020017 | 67 | 0.0 | 0.0 | 0.00 | 0.00 | 0.00 | 87 | 1018.6 | |
| 20260903015017 | 67 | 0.0 | 0.0 | 0.00 | 0.00 | 0.00 | 87 | 1018.5 | |
| 20260903014017 | 67 | 0.0 | 0.0 | 0.00 | 0.00 | 0.00 | 87 | 1018.4 | |
| 20260903013017 | 67 | 0.0 | 0.0 | 0.00 | 0.00 | 0.00 | 86 | 1018.3 | |
| 20260903012017 | 67 | 0.0 | 0.0 | 0.00 | 0.00 | 0.00 | 86 | 1018.3 | |
| 20260903011017 | 68 | 0.0 | 0.0 | 0.00 | 0.00 | 0.00 | 86 | 1018.3 | |
| 20260903010040 | 68 | 0.0 | 0.0 | 0.00 | 0.00 | 0.00 | 86 | 1018.3 | |
| 20260903005017 | 68 | 0.0 | 0.0 | 0.00 | 0.00 | 0.00 | 86 | 1018.4 | |
| 20260903004017 | 68 | 0.0 | 0.0 | 0.00 | 0.00 | 0.00 | 86 | 1018.3 | |
| 20260903003017 | 68 | 0.0 | 0.0 | 0.00 | 0.00 | 0.00 | 86 | 1018.2 | |
| 20260903002017 | 68 | 0.0 | 0.0 | 0.00 | 0.00 | 0.00 | 85 | 1018.3 | |
| 20260903001037 | 68 | 0.0 | 0.0 | 0.00 | 0.00 | 0.00 | 85 | 1018.4 | |
| 20260903000017 | 69 | 0.0 | 0.0 | 0.00 | 0.00 | 0.00 | 85 | 1018.4 | |
| 20260902235017 | 69 | 0.0 | 0.0 | 0.00 | 0.00 | 0.00 | 85 | 1018.4 | |
| 20260902234018 | 69 | 0.0 | 0.0 | 0.00 | 0.00 | 0.00 | 85 | 1018.4 | |
| 20260902233057 | 69 | 0.0 | 0.0 | 0.00 | 0.00 | 0.00 | 84 | 1018.4 | |
| 20260902232017 | 69 | 0.0 | 0.0 | 0.00 | 0.00 | 0.00 | 84 | 1018.4 | |
| 20260902231016 | 69 | 0.0 | 0.0 | 0.00 | 0.00 | 0.00 | 84 | 1018.5 | |
| 20260902230017 | 69 | 0.0 | 0.0 | 0.00 | 0.00 | 0.00 | 84 | 1018.4 | |
| 20260902225016 | 70 | 0.0 | 0.0 | 0.00 | 0.00 | 0.00 | 83 | 1018.5 | |
| 20260902224016 | 70 | 0.0 | 0.0 | 0.00 | 0.00 | 0.00 | 84 | 1018.5 | |
| 20260902223017 | 70 | 0.0 | 0.0 | 0.00 | 0.00 | 0.00 | 84 | 1018.5 | |
| 20260902222017 | 70 | 0.0 | 0.0 | 0.00 | 0.00 | 0.00 | 84 | 1018.4 | |
| 20260902221016 | 70 | 0.0 | 0.0 | 0.00 | 0.00 | 0.00 | 83 | 1018.4 | |
| 20260902220036 | 71 | 0.0 | 0.0 | 0.00 | 0.00 | 0.00 | 83 | 1018.2 |